Regional Weather Roundup
Issued by NWS

Home | Current Version | Previous Version | Graphics & Text | Print | Product List | Glossary On
Versions: 1 2 3 4 5 6 7 8 9 10 11 12 13 14 15 16 17 18 19 20 21 22 23 24 25 26 27 28 29 30 31 32 33 34 35 36 37 38 39 40 41 42 43 44 45 46 47 48 49 50
000
ASUS45 KBOU 300407
RWRCO

WEATHER ROUNDUP FOR COLORADO
NATIONAL WEATHER SERVICE DENVER/BOULDER CO
900 PM MST THU JAN 29 2015

NOTE: "FAIR" INDICATES FEW OR NO CLOUDS BELOW 12000 FEET WITH NO
SIGNIFICANT WEATHER AND/OR OBSTRUCTIONS TO VISIBILITY.

COZ001>005-013-030-031-300500-
...NORTHWEST COLORADO...

CITY           SKY/WX    TMP DP  RH WIND       PRES   REMARKS
CRAIG          CLOUDY    29  26  89 CALM      30.31S
HAYDEN         CLOUDY    32  27  80 CALM      30.30S
MEEKER         CLOUDY    31  26  82 CALM      30.30S
MOUNT WERNER   NOT AVBL
STEAMBOAT SPGS CLOUDY    31  25  77 CALM      30.31S
WALDEN         CLOUDY    27  21  80 SE7       30.33S WCI  19
$$

COZ006>008-011-300500-
...WEST CENTRAL VALLEYS...

CITY           SKY/WX    TMP DP  RH WIND       PRES   REMARKS
GRAND JUNCTION CLOUDY    43  31  62 CALM      30.28S
MONTROSE       CLOUDY    40  28  62 SE5       30.32S
EAGLE          CLEAR     34  27  75 CALM      30.33S
RIFLE          CLOUDY    38  27  64 CALM      30.29S
DELTA          CLOUDY    43  31  62 CALM      30.31S
NUCLA          CLOUDY    43  32  65 E8        30.33F
$$

COZ017>023-064>068-300500-
...SOUTHWEST COLORADO...

CITY           SKY/WX    TMP DP  RH WIND       PRES   REMARKS
DURANGO        LGT RAIN  39  31  72 CALM      30.36R
CORTEZ         CLOUDY    46  32  58 MISG      30.30S
PAGOSA SPRINGS CLOUDY    37  32  80 CALM      30.39S
TELLURIDE      CLOUDY    36  28  72 CALM      30.37S
WOLF CREEK PAS NOT AVBL
$$

COZ009-010-012-014-032>034-037-058>063-300500-
...CENTRAL COLORADO...

CITY           SKY/WX    TMP DP  RH WIND       PRES   REMARKS
ASPEN          CLOUDY    31  23  72 S6        30.31F WCI  25
BUENA VISTA    CLOUDY    31  23  73 CALM      30.42S
COPPER MTN     CLOUDY    28  14  54 S8        30.40F WCI  20
BERTHOUD PASS  MOCLDY    21  14  73 NW13      30.41F WCI   9
COTTONWOOD PAS CLOUDY    28  23  80 CALM      30.41S
GUNNISON       CLOUDY    23  18  80 CALM      30.39F
KREMMLING      CLOUDY    28  23  80 CALM      30.36R
LEADVILLE      CLOUDY    23  20  88 CALM      30.39F
MONARCH PASS   CLOUDY    23  21  93 MISG      30.52S
SALIDA         CLOUDY    34  23  66 SE5       30.49S WCI  29
SUNLIGHT       CLOUDY    30  23  74 CALM      30.39S
WILKERSON PASS CLOUDY    21  19  93 SW8       30.42F FOG     WCI  12
$$

COZ069>075-300500-
...SAN LUIS VALLEY/SANGRE DE CRISTO MOUNTAINS...

CITY           SKY/WX    TMP DP  RH WIND       PRES   REMARKS
ALAMOSA        CLOUDY    36  25  64 S8        30.38S
LA VETA PASS   CLOUDY    27  23  86 S5        30.42F WCI  21
SAGUACHE       RAIN      32  30  93 E5        30.40S WCI  27
$$

COZ035-036-038>040-300500-
...NORTHERN COLORADO FRONT RANGE...

CITY           SKY/WX    TMP DP  RH WIND       PRES   REMARKS
DENVER INTL AP CLOUDY    36  25  64 S12       30.35F
DMNS CITY PARK   N/A     40  22  48 S5        30.34F
AURORA         CLOUDY    39  23  52 S18       30.35S
FRONT RANGE AP NOT AVBL
ERIE MUNI ARPT CLOUDY    32  26  79 CALM      30.35F
BOULDER MUN AP CLOUDY    36  27  69 CALM      30.34F
CENTENNIAL     CLOUDY    38  23  55 S15       30.35F
BROOMFIELD     PTCLDY    37  27  65 NW6       30.35F
FORT COLLINS   CLOUDY    34  23  64 N3        30.37F
LONGMONT       CLOUDY    34  27  75 NW3       30.36F
$$

COZ041-046-047-076>085-087-088-300500-
...PIKES PEAK/PALMER DIVIDE AND SOUTHERN FOOTHILLS...

CITY           SKY/WX    TMP DP  RH WIND       PRES   REMARKS
COLO. SPRINGS  CLOUDY    32  23  69 SE6       30.42F WCI  26
A. F. ACADEMY  CLOUDY    34  21  59 SE12      30.40F WCI  25
ELLICOTT       CLOUDY   N/A N/A N/A S10       30.42F
FALCON         CLOUDY    31  22  69 SW9       30.43S WCI  22
FORT CARSON    CLOUDY    35  22  58 SW9       30.41F WCI  28
LIMON          MOCLDY    28  21  75 SE3       30.42F
MONUMENT HILL  CLOUDY    32  23  69 S16       30.38F WCI  21
TRINIDAD       CLOUDY    35  27  72 N3        30.43F
$$

COZ042>045-048>051-090-091-300500-
...NORTHEAST COLORADO...

CITY           SKY/WX    TMP DP  RH WIND       PRES   REMARKS
GREELEY ARPT   CLOUDY    34  19  55 E10       30.35F WCI  26
AKRON          PTCLDY    33  16  49 S12       30.41F WCI  24
BURLINGTON     PTCLDY    30  18  60 S10       30.45S WCI  21
WRAY           PTCLDY    31  21  66 CALM      30.45S
STERLING       PTCLDY    32  19  59 SW5       30.41S WCI  27
HOLYOKE        NOT AVBL
FORT MORGAN    PTCLDY    33  22  64 SE7       30.41S WCI  26
$$

COZ086-089-092>099-300500-
...SOUTHEAST COLORADO...

CITY           SKY/WX    TMP DP  RH WIND       PRES   REMARKS
PUEBLO         CLOUDY    38  23  55 CALM      30.43F
LA JUNTA       MOCLDY    41  24  51 S7        30.44S
LAMAR          PTCLDY    38  21  50 S12       30.45S
SPRINGFIELD      N/A     32  23  69 S6        30.48R WCI  26
$$


USA.gov is the U.S. government's official web portal to all federal, state and local government web resources and services.